• Join FlightAware (Why Join?)
  • Login
  • US Flag 
08:39AM EDT


 

Airport Tracker/Info


-or-


 

Live Flight TrackerFlight Track Log ✈ UAL4236 ✈ 26-Apr-2013 ✈ KIAH - KELP

Flight Track Log - Related Links

Times and Time Zones

All times are in EDT time to prevent confusion due to time zone crossing. See the UAL4236 flight status page for this flight to view local times or setup timezone preferences in your user account.

Time Position Orientation Groundspeed Altitude Reporting Facility
EDT Latitude Longitude Course Direction KTS MPH feet Rate Location/Type
10:14AM 29.9594 -95.3414 276° West 149 171 700  Level Houston Center
10:14AM 29.9294 -95.3572 205° Southwest 206 237 2,000 1,500 Climbing Houston Center
10:15AM 29.9272 -95.3642 250° West 233 268 2,200 2,160 Climbing Houston Center
10:15AM 29.8908 -95.4194 233° Southwest 244 281 4,200 2,580 Climbing Houston Center
10:16AM 29.8889 -95.4431 265° West 246 283 4,900 2,220 Climbing Houston Center
10:17AM 30.0307 -95.7759 277° West  Level FlightAware Approximate
10:17AM 29.9058 -95.5258 283° West 265 305 7,200  Level Houston Center
10:18AM 30.0406 -95.8872 276° West  Level FlightAware Approximate
10:18AM 29.9294 -95.6086 288° West 274 315 9,700  Level Houston Center
10:19AM 30.0499 -95.9986 276° West  Level FlightAware Approximate
10:19AM 29.9531 -95.6969 287° West 283 326 10,800  Level Houston Center
10:20AM 29.9800 -95.7961 287° West 319 367 11,800 900 Climbing Houston Center
10:21AM 30.0083 -95.9008 287° West 340 391 12,700 960 Climbing Houston Center
10:22AM 30.0408 -96.0242 287° West 355 409 13,800 960 Climbing Houston Center
10:23AM 30.0708 -96.1361 287° West 363 418 14,800 960 Climbing Houston Center
10:24AM 30.0994 -96.2486 286° West 366 421 15,800 960 Climbing Houston Center
10:25AM 30.1178 -96.3644 280° West 369 425 16,800 900 Climbing Houston Center
10:26AM 30.1367 -96.4864 280° West 368 423 17,700 1,140 Climbing Houston Center
10:27AM 30.1572 -96.6264 280° West 372 428 19,200 1,200 Climbing Houston Center
10:28AM 30.1756 -96.7450 280° West 370 426 20,300 1,020 Climbing Houston Center
10:29AM 30.1933 -96.8692 279° West 382 440 21,300 960 Climbing Houston Center
10:30AM 30.2119 -96.9928 280° West 384 442 22,300 960 Climbing Houston Center
10:31AM 30.2300 -97.1197 279° West 392 451 23,400 960 Climbing Houston Center
10:32AM 30.2486 -97.2464 280° West 394 453 24,400 960 Climbing Houston Center
10:33AM 30.2667 -97.3714 280° West 391 450 25,400 960 Climbing Houston Center
10:34AM 30.2853 -97.4950 280° West 387 445 26,400 960 Climbing Houston Center
10:35AM 30.3028 -97.6161 280° West 379 436 27,400 960 Climbing Houston Center
10:36AM 30.3228 -97.7550 280° West 373 429 28,500 960 Climbing Houston Center
10:37AM 30.3392 -97.8744 279° West 371 427 29,500 960 Climbing Houston Center
10:38AM 30.3556 -97.9903 279° West 364 419 30,500 960 Climbing Houston Center
10:39AM 30.3719 -98.1097 279° West 370 426 31,500 840 Climbing Houston Center
10:41AM 30.3883 -98.2286 279° West 371 427 32,300 840 Climbing Houston Center
10:42AM 30.4056 -98.3500 279° West 377 434 33,300 780 Climbing Houston Center
10:43AM 30.4228 -98.4703 279° West 375 432 34,000 300 Climbing Houston Center
10:44AM 30.4369 -98.5925 278° West 377 434 34,000  Level Houston Center
10:45AM 30.4569 -98.7400 279° West 392 451 34,000  Level Houston Center
10:46AM 30.4761 -98.8664 280° West 395 455 34,000  Level Houston Center
10:47AM 30.4928 -98.9933 279° West 396 456 34,000  Level Houston Center
10:48AM 30.5100 -99.1208 279° West 395 455 34,000  Level Houston Center
10:49AM 30.5258 -99.2406 279° West 396 456 34,000  Level Houston Center
10:50AM 30.5458 -99.3903 279° West 395 455 34,000  Level Houston Center
10:51AM 30.5611 -99.5153 278° West 394 453 34,000  Level Houston Center
10:52AM 30.5772 -99.6403 279° West 396 456 34,000  Level Houston Center
10:53AM 30.5936 -99.7656 279° West 395 455 34,000  Level Houston Center
10:54AM 30.6139 -99.8903 281° West 395 455 34,000  Level Houston Center
10:55AM 30.6386 -100.0133 283° West 395 455 34,000  Level Houston Center
10:56AM 30.6686 -100.1622 283° West 397 457 34,000  Level Houston Center
10:57AM 30.6931 -100.2842 283° West 397 457 34,000  Level Houston Center
10:58AM 30.7186 -100.4094 283° West 401 461 34,000  Level Houston Center
10:59AM 30.7431 -100.5333 283° West 399 459 34,000  Level Houston Center
11:00AM 30.7719 -100.6811 283° West 396 456 34,000  Level Houston Center
11:01AM 30.7953 -100.8069 282° West 401 461 34,000  Level Houston Center
11:02AM 30.8211 -100.9297 284° West 396 456 34,000  Level Houston Center
11:03AM 30.8444 -101.0539 282° West 395 455 34,000  Level Houston Center
11:04AM 30.8694 -101.1783 283° West 396 456 34,000  Level Houston Center
11:05AM 30.8933 -101.2992 283° West 389 448 34,000  Level Houston Center
11:06AM 30.9083 -101.3789 282° West 394 453 34,000  Level Albuquerque Center
11:07AM 30.9303 -101.5044 282° West 395 455 34,000  Level Albuquerque Center
11:08AM 30.9544 -101.6292 283° West 395 455 34,000  Level Albuquerque Center
11:09AM 30.9781 -101.7533 283° West 393 452 34,000  Level Albuquerque Center
11:10AM 31.0014 -101.8778 282° West 393 452 34,000  Level Albuquerque Center
11:11AM 31.0244 -102.0094 282° West 403 464 34,000  Level Albuquerque Center
11:12AM 31.0486 -102.1319 283° West 395 455 34,000  Level Albuquerque Center
11:13AM 31.0703 -102.2569 281° West 393 452 34,000  Level Albuquerque Center
11:14AM 31.0981 -102.4044 282° West 389 448 34,000  Level Albuquerque Center
11:15AM 31.1206 -102.5283 282° West 389 448 34,000  Level Albuquerque Center
11:16AM 31.1425 -102.6539 282° West 384 442 34,000  Level Albuquerque Center
11:17AM 31.1653 -102.7786 282° West 389 448 34,000  Level Albuquerque Center
11:18AM 31.1867 -102.9008 282° West 387 445 34,000  Level Albuquerque Center
11:19AM 31.2092 -103.0236 282° West 386 444 34,000  Level Albuquerque Center
11:20AM 31.2303 -103.1464 281° West 386 444 34,000  Level Albuquerque Center
11:21AM 31.2550 -103.2936 281° West 386 444 34,000  Level Albuquerque Center
11:22AM 31.2764 -103.4158 282° West 385 443 34,000  Level Albuquerque Center
11:23AM 31.2964 -103.5381 281° West 385 443 34,000  Level Albuquerque Center
11:24AM 31.3181 -103.6594 282° West 383 441 34,000  Level Albuquerque Center
11:25AM 31.3381 -103.7750 281° West 382 440 34,000  Level Albuquerque Center
11:26AM 31.3636 -103.9211 282° West 384 442 34,000  Level Albuquerque Center
11:28AM 31.3867 -104.0422 283° West 383 441 34,000  Level Albuquerque Center
11:29AM 31.4061 -104.1647 281° West 385 443 34,000  Level Albuquerque Center
11:30AM 31.4261 -104.2850 281° West 382 440 34,000  Level Albuquerque Center
11:31AM 31.4464 -104.4078 281° West 384 442 34,000 -120 Level Albuquerque Center
11:32AM 31.4644 -104.5544 278° West 383 441 33,800 -1,140 Descending Albuquerque Center
11:33AM 31.4764 -104.6767 277° West 382 440 31,700 -2,040 Descending Albuquerque Center
11:34AM 31.4894 -104.7981 277° West 381 438 29,700 -1,920 Descending Albuquerque Center
11:35AM 31.5022 -104.9164 277° West 373 429 27,800 -1,920 Descending Albuquerque Center
11:36AM 31.5150 -105.0414 277° West 383 441 25,800 -2,220 Descending Albuquerque Center
11:37AM 31.5308 -105.1944 277° West 394 453 23,300 -2,280 Descending Albuquerque Center
11:38AM 31.5431 -105.3228 276° West 399 459 21,100 -2,040 Descending Albuquerque Center
11:39AM 31.5539 -105.4500 276° West 392 451 19,100 -2,040 Descending Albuquerque Center
11:40AM 31.5647 -105.5686 276° West 374 430 17,200 -2,100 Descending Albuquerque Center
11:41AM 31.5764 -105.6756 277° West 361 415 15,300 -2,040 Descending Albuquerque Center
11:42AM 31.5869 -105.7900 276° West 352 405 13,400 -1,680 Descending Albuquerque Center
11:42AM 31.5903 -105.8008 290° West 355 409 13,200 -1,860 Descending Albuquerque Center
11:43AM 31.6297 -105.8817 300° West 342 394 11,700 -2,160 Descending Albuquerque Center
11:43AM 31.6464 -105.9158 300° West 338 389 11,000 -1,380 Descending Albuquerque Center
11:44AM 31.6844 -105.9925 300° West 276 318 9,900 -1,380 Descending Albuquerque Center
11:45AM 31.7089 -106.0439 299° West 255 293 8,700 -1,680 Descending Albuquerque Center
11:45AM 31.7261 -106.0678 310° West 260 299 8,000 -1,920 Descending Albuquerque Center
11:46AM 31.7597 -106.1111 312° West 252 290 6,800 -1,500 Descending Albuquerque Center
11:46AM 31.7750 -106.1272 318° Northwest 255 293 6,500 -300 Descending Albuquerque Center
11:47AM 31.7914 -106.1906 287° West 235 270 6,500  Level Albuquerque Center